DW7003 Weather Reports


time (UTC)temp
F
wind
direction
speed
knots
gust
knots
rain 1hr
in
rain 24hr
in
rain mn
in
humidity
%
barometer
mb
20260905091600 74 360 0.0 0.0 0.00 0.00 0.00 75 1009.3
20260905090057 74 360 0.0 0.0 0.00 0.00 0.00 76 1009.3
20260905084603 74 360 0.0 0.0 0.00 0.00 0.00 75 1009.3
20260905083055 75 360 0.0 0.0 0.00 0.00 0.00 75 1009.3
20260905081554 75 360 0.0 0.0 0.00 0.00 0.00 78 1009.3
20260905080100 75 360 0.0 0.0 0.00 0.00 0.00 74 1009.4
20260905074551 75 360 0.0 0.0 0.00 0.00 0.00 73 1009.4
20260905073054 75 360 0.0 0.0 0.00 0.00 0.00 70 1009.3
20260905071549 76 360 0.0 0.0 0.00 0.00 0.00 70 1009.4
20260905070048 76 360 0.0 0.0 0.00 0.00 0.00 70 1009.4
20260905064548 76 360 0.0 0.0 0.00 0.00 0.00 69 1009.6
20260905063047 76 360 0.0 0.0 0.00 0.00 0.00 70 1009.4
20260905061547 76 360 0.0 0.0 0.00 0.00 0.00 67 1009.6
20260905060045 76 360 0.0 0.0 0.00 0.00 0.00 72 1009.6
20260905054544 76 360 0.0 0.0 0.00 0.00 0.00 70 1009.7
20260905053044 76 360 0.0 0.0 0.00 0.00 0.00 72 1009.9
20260905051544 76 360 0.0 0.0 0.00 0.00 0.00 71 1010.0
20260905050037 76 360 0.0 0.0 0.00 0.00 0.00 71 1010.1
20260905044538 76 360 0.0 0.0 0.00 0.00 0.00 71 1010.2
20260905043042 77 360 0.0 0.0 0.00 0.00 0.00 73 1010.3
20260905041532 77 360 0.0 0.0 0.00 0.00 0.00 74 1010.5
20260905040032 78 360 0.0 0.0 0.00 0.00 0.00 72 1010.5
20260905034532 78 360 0.0 0.0 0.00 0.00 0.00 72 1010.5
20260905033058 78 360 0.0 0.0 0.00 0.00 0.00 72 1010.4
20260905031527 79 360 0.0 0.0 0.00 0.00 0.00 73 1010.3
20260905030033 79 360 0.0 0.0 0.00 0.00 0.00 71 1010.3
20260905024526 79 360 0.0 0.0 0.00 0.00 0.00 72 1010.2
20260905023026 79 360 0.0 0.0 0.00 0.00 0.00 71 1010.2
20260905021526 79 360 0.0 0.0 0.00 0.00 0.00 70 1010.2
20260905020024 79 360 0.0 0.0 0.00 0.00 0.00 71 1010.2
20260905014523 80 360 0.0 0.0 0.00 0.00 0.00 71 1010.2
20260905013024 80 360 0.0 0.0 0.00 0.00 0.00 73 1010.3
20260905011523 80 360 0.0 0.0 0.00 0.00 0.00 74 1010.3
20260905010022 80 360 0.0 0.0 0.00 0.00 0.00 75 1010.2
20260905004525 80 360 0.0 0.0 0.00 0.00 0.00 75 1010.0
20260905003023 80 360 0.0 0.0 0.00 0.00 0.00 76 1009.7
20260905001524 81 360 0.0 0.0 0.00 0.00 0.00 76 1009.7
20260905000020 81 360 0.0 0.0 0.00 0.00 0.00 76 1009.8
20260904234520 81 360 0.0 0.0 0.00 0.00 0.00 74 1009.9
20260904233020 82 360 0.0 0.0 0.00 0.00 0.00 72 1009.9
20260904231518 83 360 0.0 0.0 0.00 0.00 0.00 70 1009.9
20260904230030 84 360 0.0 0.0 0.00 0.00 0.00 67 1009.9
20260904224520 84 360 0.0 0.0 0.00 0.00 0.00 66 1010.0
20260904223018 85 360 0.0 0.0 0.00 0.00 0.00 64 1010.0
20260904221517 85 360 0.0 0.0 0.00 0.00 0.00 63 1010.0
20260904220017 85 360 0.0 0.0 0.00 0.00 0.00 62 1009.9
20260904214516 86 360 0.0 0.0 0.00 0.00 0.00 62 1009.9
20260904213022 86 360 0.0 0.0 0.00 0.00 0.00 59 1010.0
20260904211513 86 360 0.0 0.0 0.00 0.00 0.00 59 1009.7
20260904210012 87 360 0.0 0.0 0.00 0.00 0.00 59 1009.8
20260904204521 87 360 0.0 0.0 0.00 0.00 0.00 60 1009.9
20260904203015 88 347 0.0 0.0 0.00 0.00 0.00 58 1010.1
20260904201507 88 346 0.0 0.0 0.00 0.00 0.00 58 1010.3
20260904200007 88 343 0.0 0.0 0.00 0.00 0.00 60 1010.3
20260904194507 88 335 0.0 0.0 0.00 0.00 0.00 60 1010.4
20260904193006 89 342 0.0 0.0 0.00 0.00 0.00 58 1010.7
20260904191505 89 14 0.0 0.0 0.00 0.00 0.00 58 1010.8
20260904190005 89 102 0.0 0.0 0.00 0.00 0.00 59 1010.8
20260904184504 88 48 0.0 0.0 0.00 0.00 0.00 61 1010.9
20260904183003 87 342 0.0 0.0 0.00 0.00 0.00 59 1011.0
20260904181504 88 341 0.0 0.0 0.00 0.00 0.00 59 1011.0
20260904180003 87 336 0.0 0.0 0.00 0.00 0.00 58 1011.1
20260904174504 87 332 0.0 0.0 0.00 0.00 0.00 58 1011.0
20260904173005 88 329 0.0 0.0 0.00 0.00 0.00 56 1010.9
20260904171501 89 355 0.0 0.0 0.00 0.00 0.00 55 1011.0
20260904170001 89 39 0.0 0.0 0.00 0.00 0.00 56 1011.1
20260904164621 89 333 0.0 0.0 0.00 0.00 0.00 56 1010.9
20260904163059 88 324 0.0 0.0 0.00 0.00 0.00 57 1011.0
20260904161555 87 315 0.0 0.0 0.00 0.00 0.00 60 1011.1
20260904160052 87 309 0.0 0.0 0.00 0.00 0.00 57 1011.2
20260904154548 86 331 0.0 0.0 0.00 0.00 0.00 61 1011.2
20260904153103 85 333 0.0 0.0 0.00 0.00 0.00 63 1011.4
20260904151545 84 333 0.0 0.0 0.00 0.00 0.00 65 1011.4
20260904150045 83 332 0.0 0.0 0.00 0.00 0.00 67 1011.5
20260904144532 82 329 0.0 0.0 0.00 0.00 0.00 69 1011.4
20260904143029 82 327 0.0 0.0 0.00 0.00 0.00 71 1011.5
20260904141528 81 344 0.0 0.0 0.00 0.00 0.00 74 1011.5
20260904140032 80 360 0.0 0.0 0.00 0.00 0.00 77 1011.3
20260904134526 80 325 0.0 0.0 0.00 0.00 0.00 78 1011.3
20260904133019 79 347 0.0 0.0 0.00 0.00 0.00 80 1011.2
20260904131535 79 360 0.0 0.0 0.00 0.00 0.00 82 1011.1
20260904130013 78 355 0.0 0.0 0.00 0.00 0.00 83 1011.2
20260904124511 77 355 0.0 0.0 0.00 0.00 0.00 85 1011.2
20260904123010 77 355 0.0 0.0 0.00 0.00 0.00 86 1011.2
20260904121509 76 347 0.0 0.0 0.00 0.00 0.00 88 1011.0
20260904120008 76 84 0.0 0.0 0.00 0.00 0.00 89 1011.0
20260904114508 75 96 0.0 0.0 0.00 0.00 0.00 89 1011.1
20260904113019 75 96 0.0 0.0 0.00 0.00 0.00 89 1010.9
20260904111505 75 96 0.0 0.0 0.00 0.00 0.00 89 1010.7
20260904110004 75 96 0.0 0.0 0.00 0.00 0.00 89 1010.5
20260904104503 75 96 0.0 0.9 0.00 0.03 0.00 88 1010.4
20260904103100 76 96 0.0 0.0 0.00 0.03 0.00 87 1010.3
20260904101610 76 96 0.0 0.0 0.00 0.03 0.00 87 1010.3
20260904100108 76 96 0.0 0.0 0.00 0.03 0.00 86 1010.3
20260904094608 77 96 0.0 0.0 0.00 0.09 0.00 85 1010.2
20260904093103 77 96 0.0 0.0 0.00 0.09 0.00 85 1010.1